Time,TemperatureF,DewpointF,PressureIn,WindDirection,WindDirectionDegrees,WindSpeedMPH,WindSpeedGustMPH,Humidity,HourlyPrecipIn,Conditions,Clouds,dailyrainin,SoftwareType,DateUTC
2013-01-09 00:05:00,26.7,24.2,30.32,WSW,253,0.0,0.0,90,0.00,,,0.00,Wunderground v.1.15,2013-01-09 05:05:00,
2013-01-09 00:10:00,26.7,24.2,30.32,WSW,253,0.0,0.0,90,0.00,,,0.00,Wunderground v.1.15,2013-01-09 05:10:00,
2013-01-09 00:15:00,26.7,24.2,30.33,WSW,253,0.0,0.0,90,0.00,,,0.00,Wunderground v.1.15,2013-01-09 05:15:00,
2013-01-09 00:20:00,26.7,24.2,30.33,WSW,253,0.0,0.0,90,0.00,,,0.00,Wunderground v.1.15,2013-01-09 05:20:00,
2013-01-09 00:25:00,26.7,24.2,30.33,WSW,253,0.0,0.0,90,0.00,,,0.00,Wunderground v.1.15,2013-01-09 05:25:00,
2013-01-09 00:30:00,26.7,24.2,30.33,WSW,253,0.0,0.0,90,0.00,,,0.00,Wunderground v.1.15,2013-01-09 05:30:00,
2013-01-09 00:35:00,26.7,24.2,30.33,WSW,253,0.0,0.0,90,0.00,,,0.00,Wunderground v.1.15,2013-01-09 05:35:00,
2013-01-09 00:40:00,26.7,24.2,30.33,WSW,253,0.0,0.0,90,0.00,,,0.00,Wunderground v.1.15,2013-01-09 05:40:00,
2013-01-09 00:45:00,26.7,24.2,30.33,WSW,253,0.0,0.0,90,0.00,,,0.00,Wunderground v.1.15,2013-01-09 05:45:00,
2013-01-09 00:50:00,25.6,23.1,30.33,WSW,253,0.0,0.0,90,0.00,,,0.00,Wunderground v.1.15,2013-01-09 05:50:00,
2013-01-09 00:55:00,25.6,23.1,30.33,WSW,253,0.0,0.0,90,0.00,,,0.00,Wunderground v.1.15,2013-01-09 05:55:00,
2013-01-09 01:00:00,25.4,22.9,30.32,WSW,253,0.0,0.0,90,0.00,,,0.00,Wunderground v.1.15,2013-01-09 06:00:00,
2013-01-09 01:09:00,25.4,22.9,30.32,WSW,253,0.0,0.0,90,0.00,,,0.00,Wunderground v.1.15,2013-01-09 06:09:00,
2013-01-09 01:14:00,25.4,22.9,30.33,WSW,253,0.0,0.0,90,0.00,,,0.00,Wunderground v.1.15,2013-01-09 06:14:00,
2013-01-09 01:19:00,25.4,22.9,30.33,WSW,253,0.0,0.0,90,0.00,,,0.00,Wunderground v.1.15,2013-01-09 06:19:00,
2013-01-09 01:24:00,25.4,22.9,30.33,WSW,253,0.0,0.0,90,0.00,,,0.00,Wunderground v.1.15,2013-01-09 06:24:00,
2013-01-09 01:29:00,25.1,22.6,30.33,WSW,253,0.0,0.0,90,0.00,,,0.00,Wunderground v.1.15,2013-01-09 06:29:00,
2013-01-09 01:34:00,25.1,22.6,30.33,WSW,253,0.0,0.0,90,0.00,,,0.00,Wunderground v.1.15,2013-01-09 06:34:00,
2013-01-09 01:44:00,24.8,22.3,30.33,WSW,253,0.0,0.0,90,0.00,,,0.00,Wunderground v.1.15,2013-01-09 06:44:00,
2013-01-09 01:49:00,24.8,22.3,30.33,WSW,253,0.0,0.0,90,0.00,,,0.00,Wunderground v.1.15,2013-01-09 06:49:00,
2013-01-09 01:54:00,24.8,22.3,30.33,WSW,253,0.0,0.0,90,0.00,,,0.00,Wunderground v.1.15,2013-01-09 06:54:00,
2013-01-09 01:59:00,24.8,22.3,30.33,WSW,253,0.0,0.0,90,0.00,,,0.00,Wunderground v.1.15,2013-01-09 06:59:00,
2013-01-09 02:04:00,24.8,22.3,30.33,WSW,253,0.0,0.0,90,0.00,,,0.00,Wunderground v.1.15,2013-01-09 07:04:00,
2013-01-09 02:09:00,24.8,22.3,30.33,WSW,253,0.0,0.0,90,0.00,,,0.00,Wunderground v.1.15,2013-01-09 07:09:00,
2013-01-09 02:19:00,24.5,22.2,30.33,WSW,253,0.0,0.0,91,0.00,,,0.00,Wunderground v.1.15,2013-01-09 07:19:00,
2013-01-09 02:24:00,24.4,22.2,30.33,WSW,253,0.0,0.0,91,0.00,,,0.00,Wunderground v.1.15,2013-01-09 07:24:00,
2013-01-09 02:29:00,24.4,22.2,30.33,WSW,253,0.0,0.0,91,0.00,,,0.00,Wunderground v.1.15,2013-01-09 07:29:00,
2013-01-09 02:35:00,24.4,22.2,30.33,WSW,253,0.0,0.0,91,0.00,,,0.00,Wunderground v.1.15,2013-01-09 07:35:00,
2013-01-09 02:40:00,24.4,22.2,30.33,WSW,253,0.0,0.0,91,0.00,,,0.00,Wunderground v.1.15,2013-01-09 07:40:00,
2013-01-09 02:50:00,24.2,22.0,30.33,WSW,253,0.0,0.0,91,0.00,,,0.00,Wunderground v.1.15,2013-01-09 07:50:00,
2013-01-09 02:55:00,24.1,21.9,30.33,WSW,253,0.0,0.0,91,0.00,,,0.00,Wunderground v.1.15,2013-01-09 07:55:00,
2013-01-09 03:00:00,24.1,21.9,30.33,WSW,253,0.0,0.0,91,0.00,,,0.00,Wunderground v.1.15,2013-01-09 08:00:00,
2013-01-09 03:05:00,23.9,21.7,30.33,WSW,253,0.0,0.0,91,0.00,,,0.00,Wunderground v.1.15,2013-01-09 08:05:00,
2013-01-09 03:10:00,23.9,21.7,30.33,WSW,253,0.0,0.0,91,0.00,,,0.00,Wunderground v.1.15,2013-01-09 08:10:00,
2013-01-09 03:15:00,23.8,21.6,30.32,WSW,253,0.0,0.0,91,0.00,,,0.00,Wunderground v.1.15,2013-01-09 08:15:00,
2013-01-09 03:25:00,23.5,21.3,30.32,WSW,253,0.0,0.0,91,0.00,,,0.00,Wunderground v.1.15,2013-01-09 08:25:00,
2013-01-09 03:30:00,23.3,21.1,30.32,WSW,253,0.0,0.0,91,0.00,,,0.00,Wunderground v.1.15,2013-01-09 08:30:00,
2013-01-09 03:35:00,23.3,21.1,30.32,WSW,253,0.0,0.0,91,0.00,,,0.00,Wunderground v.1.15,2013-01-09 08:35:00,
2013-01-09 03:40:00,23.2,21.0,30.32,WSW,253,0.0,0.0,91,0.00,,,0.00,Wunderground v.1.15,2013-01-09 08:40:00,
2013-01-09 03:45:00,23.0,20.8,30.32,WSW,253,0.0,0.0,91,0.00,,,0.00,Wunderground v.1.15,2013-01-09 08:45:00,
2013-01-09 03:55:00,22.9,20.7,30.32,WSW,253,0.0,0.0,91,0.00,,,0.00,Wunderground v.1.15,2013-01-09 08:55:00,
2013-01-09 04:00:00,22.9,20.7,30.32,WSW,253,0.0,0.0,91,0.00,,,0.00,Wunderground v.1.15,2013-01-09 09:00:00,
2013-01-09 04:05:00,22.7,20.5,30.32,WSW,253,0.0,0.0,91,0.00,,,0.00,Wunderground v.1.15,2013-01-09 09:05:00,
2013-01-09 04:10:00,22.5,20.3,30.32,WSW,253,0.0,0.0,91,0.00,,,0.00,Wunderground v.1.15,2013-01-09 09:10:00,
2013-01-09 04:15:00,22.4,20.2,30.32,WSW,253,0.0,0.0,91,0.00,,,0.00,Wunderground v.1.15,2013-01-09 09:15:00,
2013-01-09 04:20:00,22.4,20.2,30.32,WSW,253,0.0,0.0,91,0.00,,,0.00,Wunderground v.1.15,2013-01-09 09:20:00,
2013-01-09 04:30:00,22.1,19.9,30.31,WSW,253,0.0,0.0,91,0.00,,,0.00,Wunderground v.1.15,2013-01-09 09:30:00,
2013-01-09 04:35:00,21.9,19.7,30.31,WSW,253,0.0,0.0,91,0.00,,,0.00,Wunderground v.1.15,2013-01-09 09:35:00,
2013-01-09 04:40:00,21.8,19.6,30.31,WSW,253,0.0,0.0,91,0.00,,,0.00,Wunderground v.1.15,2013-01-09 09:40:00,
2013-01-09 04:45:00,21.8,19.6,30.30,WSW,253,0.0,0.0,91,0.00,,,0.00,Wunderground v.1.15,2013-01-09 09:45:00,
2013-01-09 04:54:00,21.6,19.6,30.30,WSW,253,0.0,0.0,92,0.00,,,0.00,Wunderground v.1.15,2013-01-09 09:54:00,
2013-01-09 05:00:00,21.6,19.6,30.33,WSW,253,0.0,0.0,92,0.00,,,0.00,Wunderground v.1.15,2013-01-09 10:00:00,
2013-01-09 05:09:00,21.4,19.2,30.33,WSW,253,0.0,0.0,91,0.00,,,0.00,Wunderground v.1.15,2013-01-09 10:09:00,
2013-01-09 05:14:00,21.3,19.1,30.32,WSW,253,0.0,0.0,91,0.00,,,0.00,Wunderground v.1.15,2013-01-09 10:14:00,
2013-01-09 05:19:00,21.3,19.3,30.32,WSW,253,0.0,0.0,92,0.00,,,0.00,Wunderground v.1.15,2013-01-09 10:19:00,
2013-01-09 05:24:00,21.1,18.9,30.32,WSW,253,0.0,0.0,91,0.00,,,0.00,Wunderground v.1.15,2013-01-09 10:24:00,
2013-01-09 05:34:00,21.0,18.8,30.32,WSW,253,0.0,0.0,91,0.00,,,0.00,Wunderground v.1.15,2013-01-09 10:34:00,
2013-01-09 05:39:00,21.0,19.0,30.32,WSW,253,0.0,0.0,92,0.00,,,0.00,Wunderground v.1.15,2013-01-09 10:39:00,
2013-01-09 05:45:00,20.8,18.8,30.33,WSW,253,0.0,0.0,92,0.00,,,0.00,Wunderground v.1.15,2013-01-09 10:45:00,
2013-01-09 05:50:00,20.6,18.6,30.33,WSW,253,0.0,0.0,92,0.00,,,0.00,Wunderground v.1.15,2013-01-09 10:50:00,
2013-01-09 05:55:00,20.6,18.6,30.33,WSW,253,0.0,0.0,92,0.00,,,0.00,Wunderground v.1.15,2013-01-09 10:55:00,
2013-01-09 06:00:00,20.5,18.3,30.33,WSW,253,0.0,0.0,91,0.00,,,0.00,Wunderground v.1.15,2013-01-09 11:00:00,
2013-01-09 06:10:00,20.2,18.0,30.33,WSW,253,0.0,0.0,91,0.00,,,0.00,Wunderground v.1.15,2013-01-09 11:10:00,
2013-01-09 06:15:00,20.2,18.0,30.34,WSW,253,0.0,0.0,91,0.00,,,0.00,Wunderground v.1.15,2013-01-09 11:15:00,
2013-01-09 06:20:00,20.0,17.8,30.34,WSW,253,0.0,0.0,91,0.00,,,0.00,Wunderground v.1.15,2013-01-09 11:20:00,
2013-01-09 06:25:00,20.0,17.8,30.34,WSW,253,0.0,0.0,91,0.00,,,0.00,Wunderground v.1.15,2013-01-09 11:25:00,
2013-01-09 06:30:00,19.9,17.7,30.34,WSW,253,0.0,0.0,91,0.00,,,0.00,Wunderground v.1.15,2013-01-09 11:30:00,
2013-01-09 06:40:00,19.7,17.5,30.34,WSW,253,0.0,0.0,91,0.00,,,0.00,Wunderground v.1.15,2013-01-09 11:40:00,
2013-01-09 06:45:00,19.7,17.5,30.35,WSW,253,0.0,0.0,91,0.00,,,0.00,Wunderground v.1.15,2013-01-09 11:45:00,
2013-01-09 06:50:00,19.5,17.3,30.35,WSW,253,0.0,0.0,91,0.00,,,0.00,Wunderground v.1.15,2013-01-09 11:50:00,
2013-01-09 06:55:00,19.4,17.2,30.35,WSW,253,0.0,0.0,91,0.00,,,0.00,Wunderground v.1.15,2013-01-09 11:55:00,
2013-01-09 07:00:00,19.4,17.2,30.35,WSW,253,0.0,0.0,91,0.00,,,0.00,Wunderground v.1.15,2013-01-09 12:00:00,
2013-01-09 07:05:00,19.2,17.0,30.35,WSW,253,0.0,0.0,91,0.00,,,0.00,Wunderground v.1.15,2013-01-09 12:05:00,
2013-01-09 07:15:00,19.1,16.9,30.36,WSW,253,0.0,0.0,91,0.00,,,0.00,Wunderground v.1.15,2013-01-09 12:15:00,
2013-01-09 07:20:00,19.1,16.9,30.36,WSW,253,0.0,0.0,91,0.00,,,0.00,Wunderground v.1.15,2013-01-09 12:20:00,
2013-01-09 07:25:00,18.9,16.7,30.36,WSW,253,0.0,0.0,91,0.00,,,0.00,Wunderground v.1.15,2013-01-09 12:25:00,
2013-01-09 07:34:00,18.9,17.0,30.37,WSW,253,0.0,0.0,92,0.00,,,0.00,Wunderground v.1.15,2013-01-09 12:34:00,
2013-01-09 07:39:00,18.8,16.9,30.37,WSW,253,0.0,0.0,92,0.00,,,0.00,Wunderground v.1.15,2013-01-09 12:39:00,
2013-01-09 07:45:00,18.8,16.9,30.36,WSW,253,0.0,0.0,92,0.00,,,0.00,Wunderground v.1.15,2013-01-09 12:45:00,
2013-01-09 07:54:00,18.8,16.9,30.36,WSW,253,0.0,0.0,92,0.00,,,0.00,Wunderground v.1.15,2013-01-09 12:54:00,
2013-01-09 07:59:00,18.8,16.9,30.36,WSW,253,0.0,0.0,92,0.00,,,0.00,Wunderground v.1.15,2013-01-09 12:59:00,
2013-01-09 08:04:00,18.9,17.0,30.36,WSW,253,0.0,0.0,92,0.00,,,0.00,Wunderground v.1.15,2013-01-09 13:04:00,
2013-01-09 08:09:00,18.9,17.0,30.36,WSW,253,0.0,0.0,92,0.00,,,0.00,Wunderground v.1.15,2013-01-09 13:09:00,
2013-01-09 08:19:00,19.1,17.4,30.35,WSW,253,0.0,0.0,93,0.00,,,0.00,Wunderground v.1.15,2013-01-09 13:19:00,
2013-01-09 08:24:00,19.2,17.5,30.35,WSW,253,0.0,0.0,93,0.00,,,0.00,Wunderground v.1.15,2013-01-09 13:24:00,
2013-01-09 08:30:00,19.4,17.7,30.35,WSW,253,0.0,0.0,93,0.00,,,0.00,Wunderground v.1.15,2013-01-09 13:30:00,
2013-01-09 08:35:00,19.5,17.8,30.35,WSW,253,0.0,0.0,93,0.00,,,0.00,Wunderground v.1.15,2013-01-09 13:35:00,
2013-01-09 08:40:00,19.7,18.0,30.35,WSW,253,0.0,0.0,93,0.00,,,0.00,Wunderground v.1.15,2013-01-09 13:40:00,
2013-01-09 08:45:00,19.9,18.2,30.35,WSW,253,0.0,0.0,93,0.00,,,0.00,Wunderground v.1.15,2013-01-09 13:45:00,
2013-01-09 08:55:00,20.3,18.8,30.35,WSW,253,0.0,0.0,94,0.00,,,0.00,Wunderground v.1.15,2013-01-09 13:55:00,
2013-01-09 09:00:00,20.6,19.1,30.35,WSW,253,0.0,0.0,94,0.00,,,0.00,Wunderground v.1.15,2013-01-09 14:00:00,
2013-01-09 09:05:00,21.0,19.5,30.35,WSW,253,0.0,0.0,94,0.00,,,0.00,Wunderground v.1.15,2013-01-09 14:05:00,
2013-01-09 09:10:00,21.1,19.6,30.35,WSW,253,0.0,0.0,94,0.00,,,0.00,Wunderground v.1.15,2013-01-09 14:10:00,
2013-01-09 09:15:00,21.6,20.1,30.35,WSW,253,0.0,0.0,94,0.00,,,0.00,Wunderground v.1.15,2013-01-09 14:15:00,
2013-01-09 09:25:00,22.2,21.0,30.35,WSW,253,0.0,0.0,95,0.00,,,0.00,Wunderground v.1.15,2013-01-09 14:25:00,
2013-01-09 09:30:00,23.0,21.8,30.34,WSW,253,0.0,0.0,95,0.00,,,0.00,Wunderground v.1.15,2013-01-09 14:30:00,
2013-01-09 09:35:00,24.4,22.9,30.34,WSW,253,0.0,0.0,94,0.00,,,0.00,Wunderground v.1.15,2013-01-09 14:35:00,
2013-01-09 09:40:00,25.1,22.8,30.34,WSW,253,0.0,0.0,91,0.00,,,0.00,Wunderground v.1.15,2013-01-09 14:40:00,
2013-01-09 09:45:00,25.7,22.9,30.33,WSW,253,0.0,0.0,89,0.00,,,0.00,Wunderground v.1.15,2013-01-09 14:45:00,
2013-01-09 09:50:00,26.1,23.0,30.33,WSW,253,0.0,0.0,88,0.00,,,0.00,Wunderground v.1.15,2013-01-09 14:50:00,
2013-01-09 10:00:00,26.9,23.0,30.32,WSW,253,0.0,0.0,85,0.00,,,0.00,Wunderground v.1.15,2013-01-09 15:00:00,
2013-01-09 10:05:00,27.3,23.1,30.32,WSW,253,0.0,0.0,84,0.00,,,0.00,Wunderground v.1.15,2013-01-09 15:05:00,
2013-01-09 10:10:00,27.8,23.6,30.32,WSW,253,0.0,0.0,84,0.00,,,0.00,Wunderground v.1.15,2013-01-09 15:10:00,
2013-01-09 10:19:00,28.7,24.5,30.30,WSW,253,0.0,0.0,84,0.00,,,0.00,Wunderground v.1.15,2013-01-09 15:19:00,
2013-01-09 10:24:00,29.0,24.8,30.30,WSW,253,0.0,0.0,84,0.00,,,0.00,Wunderground v.1.15,2013-01-09 15:24:00,
2013-01-09 10:30:00,29.4,24.9,30.29,WSW,253,0.0,0.0,83,0.00,,,0.00,Wunderground v.1.15,2013-01-09 15:30:00,
2013-01-09 10:35:00,29.8,25.3,30.29,WSW,253,0.0,0.0,83,0.00,,,0.00,Wunderground v.1.15,2013-01-09 15:35:00,
2013-01-09 10:44:00,30.1,25.0,30.29,WSW,253,0.0,0.0,81,0.00,,,0.00,Wunderground v.1.15,2013-01-09 15:44:00,
2013-01-09 10:49:00,30.4,25.3,30.29,WSW,253,0.0,0.0,81,0.00,,,0.00,Wunderground v.1.15,2013-01-09 15:49:00,
2013-01-09 10:54:00,30.9,25.2,30.29,WSW,253,0.0,0.0,79,0.00,,,0.00,Wunderground v.1.15,2013-01-09 15:54:00,
2013-01-09 11:00:00,31.3,25.8,30.29,WSW,253,0.0,0.0,80,0.00,,,0.00,Wunderground v.1.15,2013-01-09 16:00:00,
2013-01-09 11:09:00,31.6,25.8,30.29,WSW,253,0.0,0.0,79,0.00,,,0.00,Wunderground v.1.15,2013-01-09 16:09:00,
2013-01-09 11:14:00,32.7,26.9,30.27,WSW,253,0.0,0.0,79,0.00,,,0.00,Wunderground v.1.15,2013-01-09 16:14:00,
2013-01-09 11:19:00,32.7,26.9,30.27,WSW,253,0.0,0.0,79,0.00,,,0.00,Wunderground v.1.15,2013-01-09 16:19:00,
2013-01-09 11:24:00,32.7,26.9,30.27,WSW,253,0.0,0.0,79,0.00,,,0.00,Wunderground v.1.15,2013-01-09 16:24:00,
2013-01-09 11:29:00,34.6,28.8,30.25,WSW,251,0.0,0.0,79,0.00,,,0.00,Wunderground v.1.15,2013-01-09 16:29:00,
2013-01-09 11:35:00,34.6,28.8,30.25,WSW,251,0.0,0.0,79,0.00,,,0.00,Wunderground v.1.15,2013-01-09 16:35:00,
2013-01-09 11:40:00,34.6,28.8,30.25,WSW,251,0.0,0.0,79,0.00,,,0.00,Wunderground v.1.15,2013-01-09 16:40:00,
2013-01-09 11:45:00,36.2,30.3,30.22,WSW,251,0.0,0.0,79,0.00,,,0.00,Wunderground v.1.15,2013-01-09 16:45:00,
2013-01-09 11:50:00,36.6,30.7,30.22,WSW,251,0.0,0.0,79,0.00,,,0.00,Wunderground v.1.15,2013-01-09 16:50:00,
2013-01-09 11:55:00,36.6,30.7,30.22,WSW,251,0.0,0.0,79,0.00,,,0.00,Wunderground v.1.15,2013-01-09 16:55:00,
2013-01-09 12:05:00,36.6,30.7,30.20,WSW,251,0.0,0.0,79,0.00,,,0.00,Wunderground v.1.15,2013-01-09 17:05:00,
2013-01-09 12:10:00,37.3,31.4,30.20,WSW,251,0.0,0.0,79,0.00,,,0.00,Wunderground v.1.15,2013-01-09 17:10:00,
2013-01-09 12:15:00,37.3,31.4,30.19,WSW,251,0.0,0.0,79,0.00,,,0.00,Wunderground v.1.15,2013-01-09 17:15:00,
2013-01-09 12:20:00,37.3,31.4,30.19,SSW,200,0.0,0.0,79,0.00,,,0.00,Wunderground v.1.15,2013-01-09 17:20:00,
2013-01-09 12:25:00,37.3,31.4,30.19,SSW,200,0.0,0.0,79,0.00,,,0.00,Wunderground v.1.15,2013-01-09 17:25:00,
2013-01-09 12:40:00,-999.9,-99.9,30.16,North,32767,-999.0,0.0,255,-99.99,,,0.00,Wunderground v.1.15,2013-01-09 17:40:00,
2013-01-09 12:45:00,-999.9,-99.9,30.15,North,32767,-999.0,0.0,255,-99.99,,,0.00,Wunderground v.1.15,2013-01-09 17:45:00,
2013-01-09 12:54:00,-999.9,-99.9,30.15,North,32767,-999.0,0.0,255,-99.99,,,0.00,Wunderground v.1.15,2013-01-09 17:54:00,
2013-01-09 12:59:00,-999.9,-99.9,30.13,North,32767,-999.0,0.0,255,-99.99,,,0.00,Wunderground v.1.15,2013-01-09 17:59:00,
2013-01-09 13:04:00,-999.9,-99.9,30.13,North,32767,-999.0,0.0,255,-99.99,,,0.00,Wunderground v.1.15,2013-01-09 18:04:00,
2013-01-09 13:14:00,-999.9,-99.9,30.11,North,32767,-999.0,0.0,255,-99.99,,,0.00,Wunderground v.1.15,2013-01-09 18:14:00,
2013-01-09 13:19:00,-999.9,-99.9,30.11,North,32767,-999.0,0.0,255,-99.99,,,0.00,Wunderground v.1.15,2013-01-09 18:19:00,
2013-01-09 13:24:00,-999.9,-99.9,30.11,North,32767,-999.0,0.0,255,-99.99,,,0.00,Wunderground v.1.15,2013-01-09 18:24:00,
2013-01-09 13:29:00,-999.9,-99.9,30.15,North,32767,-999.0,0.0,255,-99.99,,,0.00,Wunderground v.1.15,2013-01-09 18:29:00,
2013-01-09 13:34:00,-999.9,-99.9,30.15,North,32767,-999.0,0.0,255,-99.99,,,0.00,Wunderground v.1.15,2013-01-09 18:34:00,
2013-01-09 13:40:00,-999.9,-99.9,30.15,North,32767,-999.0,0.0,255,-99.99,,,0.00,Wunderground v.1.15,2013-01-09 18:40:00,
2013-01-09 13:45:00,-999.9,-99.9,30.14,North,32767,-999.0,0.0,255,-99.99,,,0.00,Wunderground v.1.15,2013-01-09 18:45:00,
2013-01-09 13:49:00,-999.9,-99.9,30.14,North,32767,-999.0,0.0,255,-99.99,,,0.00,Wunderground v.1.15,2013-01-09 18:49:00,
2013-01-09 13:55:00,-999.9,-99.9,30.14,North,32767,-999.0,0.0,255,-99.99,,,0.00,Wunderground v.1.15,2013-01-09 18:55:00,
2013-01-09 14:00:00,-999.9,-99.9,30.13,North,32767,-999.0,0.0,255,-99.99,,,0.00,Wunderground v.1.15,2013-01-09 19:00:00,
2013-01-09 14:05:00,-999.9,-99.9,30.13,North,32767,-999.0,0.0,255,-99.99,,,0.00,Wunderground v.1.15,2013-01-09 19:05:00,
2013-01-09 14:10:00,-999.9,-99.9,30.13,North,32767,-999.0,0.0,255,-99.99,,,0.00,Wunderground v.1.15,2013-01-09 19:10:00,
2013-01-09 14:15:00,-999.9,-99.9,30.13,North,32767,-999.0,0.0,255,-99.99,,,0.00,Wunderground v.1.15,2013-01-09 19:15:00,
2013-01-09 14:25:00,-999.9,-99.9,30.13,North,32767,-999.0,0.0,255,-99.99,,,0.00,Wunderground v.1.15,2013-01-09 19:25:00,
2013-01-09 14:30:00,-999.9,-99.9,30.11,North,32767,-999.0,0.0,255,-99.99,,,0.00,Wunderground v.1.15,2013-01-09 19:30:00,
2013-01-09 14:35:00,-999.9,-99.9,30.11,North,32767,-999.0,0.0,255,-99.99,,,0.00,Wunderground v.1.15,2013-01-09 19:35:00,
2013-01-09 14:40:00,-999.9,-99.9,30.11,North,32767,-999.0,0.0,255,-99.99,,,0.00,Wunderground v.1.15,2013-01-09 19:40:00,
2013-01-09 14:45:00,-999.9,-99.9,30.10,North,32767,-999.0,0.0,255,-99.99,,,0.00,Wunderground v.1.15,2013-01-09 19:45:00,
2013-01-09 14:55:00,-999.9,-99.9,30.10,North,32767,-999.0,0.0,255,-99.99,,,0.00,Wunderground v.1.15,2013-01-09 19:55:00,
2013-01-09 15:04:00,-999.9,-99.9,30.09,North,32767,-999.0,0.0,255,-99.99,,,0.00,Wunderground v.1.15,2013-01-09 20:04:00,
2013-01-09 15:09:00,-999.9,-99.9,30.09,North,32767,-999.0,0.0,255,-99.99,,,0.00,Wunderground v.1.15,2013-01-09 20:09:00,
2013-01-09 15:14:00,-999.9,-99.9,30.07,North,32767,-999.0,0.0,255,-99.99,,,0.00,Wunderground v.1.15,2013-01-09 20:14:00,
2013-01-09 15:19:00,-999.9,-99.9,30.07,North,32767,-999.0,0.0,255,-99.99,,,0.00,Wunderground v.1.15,2013-01-09 20:19:00,
2013-01-09 15:29:00,-999.9,-99.9,30.06,North,32767,-999.0,0.0,255,-99.99,,,0.00,Wunderground v.1.15,2013-01-09 20:29:00,
2013-01-09 15:34:00,-999.9,-99.9,30.06,North,32767,-999.0,0.0,255,-99.99,,,0.00,Wunderground v.1.15,2013-01-09 20:34:00,
2013-01-09 15:39:00,-999.9,-99.9,30.06,North,32767,-999.0,0.0,255,-99.99,,,0.00,Wunderground v.1.15,2013-01-09 20:39:00,
2013-01-09 15:44:00,-999.9,-99.9,30.03,North,32767,-999.0,0.0,255,-99.99,,,0.00,Wunderground v.1.15,2013-01-09 20:44:00,
2013-01-09 15:49:00,-999.9,-99.9,30.03,North,32767,-999.0,0.0,255,-99.99,,,0.00,Wunderground v.1.15,2013-01-09 20:49:00,
2013-01-09 15:54:00,-999.9,-99.9,30.03,North,32767,-999.0,0.0,255,-99.99,,,0.00,Wunderground v.1.15,2013-01-09 20:54:00,
2013-01-09 16:04:00,-999.9,-99.9,30.02,North,32767,-999.0,0.0,255,-99.99,,,0.00,Wunderground v.1.15,2013-01-09 21:04:00,
2013-01-09 16:10:00,-999.9,-99.9,30.02,North,32767,-999.0,0.0,255,-99.99,,,0.00,Wunderground v.1.15,2013-01-09 21:10:00,
2013-01-09 16:15:00,-999.9,-99.9,29.99,North,32767,-999.0,0.0,255,-99.99,,,0.00,Wunderground v.1.15,2013-01-09 21:15:00,
2013-01-09 16:20:00,-999.9,-99.9,29.99,North,32767,-999.0,0.0,255,-99.99,,,0.00,Wunderground v.1.15,2013-01-09 21:20:00,
2013-01-09 16:25:00,-999.9,-99.9,29.99,North,32767,-999.0,0.0,255,-99.99,,,0.00,Wunderground v.1.15,2013-01-09 21:25:00,
2013-01-09 16:35:00,-999.9,-99.9,29.99,North,32767,-999.0,0.0,255,-99.99,,,0.00,Wunderground v.1.15,2013-01-09 21:35:00,
2013-01-09 16:40:00,-999.9,-99.9,29.99,North,32767,-999.0,0.0,255,-99.99,,,0.00,Wunderground v.1.15,2013-01-09 21:40:00,
2013-01-09 16:45:00,-999.9,-99.9,30.00,North,32767,-999.0,0.0,255,-99.99,,,0.00,Wunderground v.1.15,2013-01-09 21:45:00,
2013-01-09 16:50:00,-999.9,-99.9,30.00,North,32767,-999.0,0.0,255,-99.99,,,0.00,Wunderground v.1.15,2013-01-09 21:50:00,
2013-01-09 16:55:00,-999.9,-99.9,30.00,North,32767,-999.0,0.0,255,-99.99,,,0.00,Wunderground v.1.15,2013-01-09 21:55:00,
2013-01-09 17:00:00,-999.9,-99.9,29.98,North,32767,-999.0,0.0,255,-99.99,,,0.00,Wunderground v.1.15,2013-01-09 22:00:00,
2013-01-09 17:10:00,-999.9,-99.9,29.98,North,32767,-999.0,0.0,255,-99.99,,,0.00,Wunderground v.1.15,2013-01-09 22:10:00,
2013-01-09 17:15:00,-999.9,-99.9,29.97,North,32767,-999.0,0.0,255,-99.99,,,0.00,Wunderground v.1.15,2013-01-09 22:15:00,
2013-01-09 17:20:00,-999.9,-99.9,29.97,North,32767,-999.0,0.0,255,-99.99,,,0.00,Wunderground v.1.15,2013-01-09 22:20:00,
2013-01-09 17:25:00,-999.9,-99.9,29.97,North,32767,-999.0,0.0,255,-99.99,,,0.00,Wunderground v.1.15,2013-01-09 22:25:00,
2013-01-09 17:30:00,-999.9,-99.9,29.95,North,32767,-999.0,0.0,255,-99.99,,,0.00,Wunderground v.1.15,2013-01-09 22:30:00,
2013-01-09 17:40:00,-999.9,-99.9,29.95,North,32767,-999.0,0.0,255,-99.99,,,0.00,Wunderground v.1.15,2013-01-09 22:40:00,
2013-01-09 17:45:00,-999.9,-99.9,29.94,North,32767,-999.0,0.0,255,-99.99,,,0.00,Wunderground v.1.15,2013-01-09 22:45:00,
2013-01-09 17:50:00,-999.9,-99.9,29.94,North,32767,-999.0,0.0,255,-99.99,,,0.00,Wunderground v.1.15,2013-01-09 22:50:00,
2013-01-09 17:55:00,-999.9,-99.9,29.94,North,32767,-999.0,0.0,255,-99.99,,,0.00,Wunderground v.1.15,2013-01-09 22:55:00,
2013-01-09 18:00:00,-999.9,-99.9,29.93,North,32767,-999.0,0.0,255,-99.99,,,0.00,Wunderground v.1.15,2013-01-09 23:00:00,
2013-01-09 18:05:00,-999.9,-99.9,29.93,North,32767,-999.0,0.0,255,-99.99,,,0.00,Wunderground v.1.15,2013-01-09 23:05:00,
2013-01-09 18:15:00,-999.9,-99.9,29.94,North,32767,-999.0,0.0,255,-99.99,,,0.00,Wunderground v.1.15,2013-01-09 23:15:00,
2013-01-09 18:20:00,-999.9,-99.9,29.94,North,32767,-999.0,0.0,255,-99.99,,,0.00,Wunderground v.1.15,2013-01-09 23:20:00,
2013-01-09 18:29:00,-999.9,-99.9,29.95,North,32767,-999.0,0.0,255,-99.99,,,0.00,Wunderground v.1.15,2013-01-09 23:29:00,
2013-01-09 18:34:00,-999.9,-99.9,29.95,North,32767,-999.0,0.0,255,-99.99,,,0.00,Wunderground v.1.15,2013-01-09 23:34:00,
2013-01-09 18:39:00,-999.9,-99.9,29.95,North,32767,-999.0,0.0,255,-99.99,,,0.00,Wunderground v.1.15,2013-01-09 23:39:00,
2013-01-09 18:45:00,-999.9,-99.9,29.94,North,32767,-999.0,0.0,255,-99.99,,,0.00,Wunderground v.1.15,2013-01-09 23:45:00,
2013-01-09 18:54:00,-999.9,-99.9,29.94,WSW,237,0.0,0.0,255,0.00,,,0.00,Wunderground v.1.15,2013-01-09 23:54:00,
2013-01-09 18:59:00,36.9,-99.9,29.93,West,260,0.0,0.0,255,0.00,,,0.00,Wunderground v.1.15,2013-01-09 23:59:00,
2013-01-09 19:04:00,36.9,-99.9,29.93,WSW,254,0.0,2.0,255,0.00,,,0.00,Wunderground v.1.15,2013-01-10 00:04:00,
2013-01-09 19:09:00,37.2,-99.9,29.93,SW,219,0.0,0.0,255,0.00,,,0.00,Wunderground v.1.15,2013-01-10 00:09:00,
2013-01-09 19:19:00,37.2,-99.9,29.92,SW,219,0.0,0.0,255,0.00,,,0.00,Wunderground v.1.15,2013-01-10 00:19:00,
2013-01-09 19:24:00,37.2,-99.9,29.92,WSW,257,0.0,0.0,255,0.00,,,0.00,Wunderground v.1.15,2013-01-10 00:24:00,
2013-01-09 19:29:00,37.2,-99.9,29.92,SW,220,0.0,0.0,255,0.00,,,0.00,Wunderground v.1.15,2013-01-10 00:29:00,
2013-01-09 19:34:00,37.2,-99.9,29.92,SW,220,0.0,0.0,255,0.00,,,0.00,Wunderground v.1.15,2013-01-10 00:34:00,
2013-01-09 19:39:00,37.2,-99.9,29.92,SW,236,0.0,0.0,255,0.00,,,0.00,Wunderground v.1.15,2013-01-10 00:39:00,
2013-01-09 19:45:00,37.2,-99.9,29.92,SW,236,0.0,0.0,255,0.00,,,0.00,Wunderground v.1.15,2013-01-10 00:45:00,
2013-01-09 19:54:00,37.5,-99.9,29.92,West,274,0.0,0.0,255,-99.99,,,0.00,Wunderground v.1.15,2013-01-10 00:54:00,
2013-01-09 19:59:00,37.5,-99.9,29.92,West,274,0.0,0.0,255,-99.99,,,0.00,Wunderground v.1.15,2013-01-10 00:59:00,
2013-01-09 20:04:00,37.5,-99.9,29.92,West,274,0.0,0.0,255,-99.99,,,0.00,Wunderground v.1.15,2013-01-10 01:04:00,
2013-01-09 20:09:00,-999.9,-99.9,29.92,North,32767,-999.0,0.0,255,-99.99,,,0.00,Wunderground v.1.15,2013-01-10 01:09:00,
2013-01-09 20:15:00,-999.9,-99.9,29.93,North,32767,-999.0,0.0,255,-99.99,,,0.00,Wunderground v.1.15,2013-01-10 01:15:00,
2013-01-09 20:24:00,-999.9,-99.9,29.93,North,32767,-999.0,0.0,255,-99.99,,,0.00,Wunderground v.1.15,2013-01-10 01:24:00,
2013-01-09 20:30:00,-999.9,-99.9,29.92,North,32767,-999.0,0.0,255,-99.99,,,0.00,Wunderground v.1.15,2013-01-10 01:30:00,
2013-01-09 20:35:00,-999.9,-99.9,29.92,North,32767,-999.0,0.0,255,-99.99,,,0.00,Wunderground v.1.15,2013-01-10 01:35:00,
2013-01-09 20:40:00,-999.9,-99.9,29.92,North,32767,-999.0,0.0,255,-99.99,,,0.00,Wunderground v.1.15,2013-01-10 01:40:00,
2013-01-09 20:45:00,-999.9,-99.9,29.93,North,32767,-999.0,0.0,255,-99.99,,,0.00,Wunderground v.1.15,2013-01-10 01:45:00,
2013-01-09 20:50:00,-999.9,-99.9,29.93,North,32767,-999.0,0.0,255,-99.99,,,0.00,Wunderground v.1.15,2013-01-10 01:50:00,
2013-01-09 20:55:00,-999.9,-99.9,29.93,North,32767,-999.0,0.0,255,-99.99,,,0.00,Wunderground v.1.15,2013-01-10 01:55:00,
2013-01-09 21:00:00,-999.9,-99.9,29.93,North,32767,-999.0,0.0,255,-99.99,,,0.00,Wunderground v.1.15,2013-01-10 02:00:00,
2013-01-09 21:05:00,-999.9,-99.9,29.93,North,32767,-999.0,0.0,255,-99.99,,,0.00,Wunderground v.1.15,2013-01-10 02:05:00,
2013-01-09 21:10:00,-999.9,-99.9,29.93,North,32767,-999.0,0.0,255,-99.99,,,0.00,Wunderground v.1.15,2013-01-10 02:10:00,
2013-01-09 21:15:00,-999.9,-99.9,29.92,North,32767,-999.0,0.0,255,-99.99,,,0.00,Wunderground v.1.15,2013-01-10 02:15:00,
2013-01-09 21:20:00,-999.9,-99.9,29.92,North,32767,-999.0,0.0,255,-99.99,,,0.00,Wunderground v.1.15,2013-01-10 02:20:00,
2013-01-09 21:30:00,-999.9,-99.9,29.93,North,32767,-999.0,0.0,255,-99.99,,,0.00,Wunderground v.1.15,2013-01-10 02:30:00,
2013-01-09 21:35:00,-999.9,-99.9,29.93,North,32767,-999.0,0.0,255,-99.99,,,0.00,Wunderground v.1.15,2013-01-10 02:35:00,
2013-01-09 21:40:00,-999.9,-99.9,29.93,North,32767,-999.0,0.0,255,-99.99,,,0.00,Wunderground v.1.15,2013-01-10 02:40:00,
2013-01-09 21:49:00,-999.9,-99.9,29.93,North,32767,-999.0,0.0,255,-99.99,,,0.00,Wunderground v.1.15,2013-01-10 02:49:00,
2013-01-09 21:54:00,-999.9,-99.9,29.93,North,32767,-999.0,0.0,255,-99.99,,,0.00,Wunderground v.1.15,2013-01-10 02:54:00,
2013-01-09 22:04:00,-999.9,-99.9,29.93,North,32767,-999.0,0.0,255,-99.99,,,0.00,Wunderground v.1.15,2013-01-10 03:04:00,
2013-01-09 22:09:00,-999.9,-99.9,29.93,North,32767,-999.0,0.0,255,-99.99,,,0.00,Wunderground v.1.15,2013-01-10 03:09:00,
2013-01-09 22:14:00,-999.9,-99.9,29.93,North,32767,-999.0,0.0,255,-99.99,,,0.00,Wunderground v.1.15,2013-01-10 03:14:00,
2013-01-09 22:19:00,-999.9,-99.9,29.93,North,32767,-999.0,0.0,255,-99.99,,,0.00,Wunderground v.1.15,2013-01-10 03:19:00,
2013-01-09 22:24:00,-999.9,-99.9,29.93,North,32767,-999.0,0.0,255,-99.99,,,0.00,Wunderground v.1.15,2013-01-10 03:24:00,
2013-01-09 22:30:00,-999.9,-99.9,29.94,North,32767,-999.0,0.0,255,-99.99,,,0.00,Wunderground v.1.15,2013-01-10 03:30:00,
2013-01-09 22:39:00,-999.9,-99.9,29.94,North,32767,-999.0,0.0,255,-99.99,,,0.00,Wunderground v.1.15,2013-01-10 03:39:00,
2013-01-09 22:44:00,-999.9,-99.9,29.94,North,32767,-999.0,0.0,255,-99.99,,,0.00,Wunderground v.1.15,2013-01-10 03:44:00,
2013-01-09 22:50:00,-999.9,-99.9,29.94,North,32767,-999.0,0.0,255,-99.99,,,0.00,Wunderground v.1.15,2013-01-10 03:50:00,
2013-01-09 22:55:00,39.3,31.0,29.94,WSW,246,0.0,0.0,72,0.00,,,0.00,Wunderground v.1.15,2013-01-10 03:55:00,
2013-01-09 23:00:00,39.5,31.2,29.93,SW,224,0.0,0.0,72,0.00,,,0.00,Wunderground v.1.15,2013-01-10 04:00:00,
2013-01-09 23:10:00,39.6,29.9,29.93,WSW,254,0.0,0.0,68,0.00,,,0.00,Wunderground v.1.15,2013-01-10 04:10:00,
2013-01-09 23:15:00,39.9,29.8,29.93,SSW,210,0.0,0.0,67,0.00,,,0.00,Wunderground v.1.15,2013-01-10 04:15:00,
2013-01-09 23:20:00,40.1,29.6,29.93,WSW,257,0.0,2.0,66,0.00,,,0.00,Wunderground v.1.15,2013-01-10 04:20:00,
2013-01-09 23:25:00,40.3,29.5,29.93,SW,219,1.0,2.0,65,0.00,,,0.00,Wunderground v.1.15,2013-01-10 04:25:00,
2013-01-09 23:30:00,40.5,29.7,29.94,WSW,253,1.0,1.0,65,0.00,,,0.00,Wunderground v.1.15,2013-01-10 04:30:00,
2013-01-09 23:35:00,40.6,28.6,29.94,SW,232,1.0,1.0,62,0.00,,,0.00,Wunderground v.1.15,2013-01-10 04:35:00,
2013-01-09 23:45:00,40.9,28.5,29.93,SW,232,0.0,0.0,61,0.00,,,0.00,Wunderground v.1.15,2013-01-10 04:45:00,
2013-01-09 23:50:00,40.9,28.5,29.93,SSE,158,0.0,0.0,61,0.00,,,0.00,Wunderground v.1.15,2013-01-10 04:50:00,
2013-01-09 23:55:00,40.8,28.8,29.93,ENE,61,0.0,0.0,62,0.00,,,0.00,Wunderground v.1.15,2013-01-10 04:55:00,